EW9831 Weather Reports


time (UTC)temp
C
wind
direction
speed
KPH
gust
KPH
rain 1hr
cm
rain 24hr
cm
rain mn
cm
humidity
%
barometer
mb
20180821180104 31 320 12.9 12.9 0.00 0.00 0.00 30 1013.0
20180821175604 31 320 12.9 12.9 0.00 0.00 0.00 30 1013.0
20180821175104 31 320 12.9 12.9 0.00 0.00 0.00 30 1013.0
20180821174604 31 290 9.7 9.7 0.00 0.00 0.00 29 1013.0
20180821174104 31 290 9.7 9.7 0.00 0.00 0.00 29 1013.0
20180821173104 31 290 9.7 9.7 0.00 0.00 0.00 28 1013.0
20180821172104 32 290 9.7 9.7 0.00 0.00 0.00 28 1013.0
20180821171104 32 320 9.7 9.7 0.00 0.00 0.00 28 1013.0
20180821170105 32 320 9.7 9.7 0.00 0.00 0.00 28 1013.0
20180821165104 32 320 9.7 11.3 0.00 0.00 0.00 27 1013.0
20180821162605 33 290 11.3 11.3 0.00 0.00 0.00 28 1013.0
20180821162104 33 290 11.3 11.3 0.00 0.00 0.00 28 1013.0
20180821161604 33 300 9.7 9.7 0.00 0.00 0.00 28 1013.0
20180821161104 33 300 9.7 9.7 0.00 0.00 0.00 28 1013.0
20180821154604 33 290 8.0 8.0 0.00 0.00 0.00 28 1013.0
20180821154104 33 290 8.0 8.0 0.00 0.00 0.00 28 1013.0
20180821153604 33 290 8.0 8.0 0.00 0.00 0.00 28 1013.0
20180821153104 33 290 8.0 8.0 0.00 0.00 0.00 28 1013.0
20180821152604 33 290 8.0 8.0 0.00 0.00 0.00 27 1013.2
20180821152104 33 290 8.0 11.3 0.00 0.00 0.00 27 1013.2
20180821151605 33 310 11.3 11.3 0.00 0.00 0.00 27 1013.2
20180821145104 33 310 11.3 11.3 0.00 0.00 0.00 26 1013.3
20180821144104 33 290 8.0 8.0 0.00 0.00 0.00 27 1013.3
20180821142604 34 290 8.0 8.0 0.00 0.00 0.00 26 1013.8
20180821141104 34 280 8.0 8.0 0.00 0.00 0.00 26 1013.8
20180821140604 34 280 8.0 8.0 0.00 0.00 0.00 26 1013.8
20180821140105 34 280 8.0 8.0 0.00 0.00 0.00 26 1013.8
20180821135605 34 280 8.0 8.0 0.00 0.00 0.00 26 1013.8
20180821135105 34 280 8.0 9.7 0.00 0.00 0.00 26 1013.8
20180821134604 34 270 9.7 9.7 0.00 0.00 0.00 25 1013.9
20180821134105 34 270 9.7 9.7 0.00 0.00 0.00 25 1013.9
20180821133604 34 270 9.7 9.7 0.00 0.00 0.00 25 1013.8
20180821133104 34 270 9.7 9.7 0.00 0.00 0.00 25 1013.8
20180821131605 35 250 9.7 9.7 0.00 0.00 0.00 25 1014.1
20180821131104 35 250 9.7 9.7 0.00 0.00 0.00 25 1014.1
20180821130604 35 250 9.7 9.7 0.00 0.00 0.00 25 1014.1
20180821130105 35 250 9.7 9.7 0.00 0.00 0.00 25 1014.1
20180821125604 35 250 9.7 9.7 0.00 0.00 0.00 26 1014.1
20180821125105 35 250 9.7 9.7 0.00 0.00 0.00 26 1014.1
20180821124104 36 270 9.7 9.7 0.00 0.00 0.00 25 1014.1
20180821122605 36 270 9.7 9.7 0.00 0.00 0.00 25 1014.1
20180821121605 36 230 9.7 9.7 0.00 0.00 0.00 25 1014.1
20180821120604 36 230 9.7 9.7 0.00 0.00 0.00 25 1014.1
20180821120105 36 230 9.7 9.7 0.00 0.00 0.00 25 1014.1
20180821115601 36 230 9.7 9.7 0.00 0.00 0.00 26 1014.3
20180821114601 35 240 11.3 11.3 0.00 0.00 0.00 26 1014.3
20180821114101 35 240 11.3 11.3 0.00 0.00 0.00 26 1014.3
20180821113602 35 240 11.3 11.3 0.00 0.00 0.00 20 1014.3
20180821113101 35 240 11.3 11.3 0.00 0.00 0.00 20 1014.3
20180821112102 33 240 11.3 11.3 0.00 0.00 0.00 22 1014.4
20180821111601 33 250 9.7 9.7 0.00 0.00 0.00 22 1014.4
20180821110601 33 250 9.7 9.7 0.00 0.00 0.00 22 1014.4
20180821110102 33 250 9.7 9.7 0.00 0.00 0.00 22 1014.4
20180821105101 33 250 9.7 9.7 0.00 0.00 0.00 22 1014.4
20180821104601 33 260 9.7 9.7 0.00 0.00 0.00 23 1014.5
20180821104101 33 260 9.7 9.7 0.00 0.00 0.00 23 1014.5
20180821103101 33 260 9.7 9.7 0.00 0.00 0.00 23 1014.6
20180821102101 32 260 9.7 9.7 0.00 0.00 0.00 24 1014.6
20180821100601 32 120 1.6 3.2 0.00 0.00 0.00 24 1014.6
20180821100102 32 120 1.6 3.2 0.00 0.00 0.00 24 1014.6
20180821095102 32 120 1.6 8.0 0.00 0.00 0.00 25 1014.6
20180821094602 31 120 8.0 8.0 0.00 0.00 0.00 25 1014.6
20180821094101 31 120 8.0 8.0 0.00 0.00 0.00 25 1014.6
20180821093101 31 120 8.0 8.0 0.00 0.00 0.00 25 1014.6
20180821091601 31 140 8.0 8.0 0.00 0.00 0.00 26 1014.7
20180821091102 31 140 8.0 8.0 0.00 0.00 0.00 26 1014.7
20180821090602 31 140 8.0 8.0 0.00 0.00 0.00 26 1014.7
20180821085101 30 140 8.0 11.3 0.00 0.00 0.00 27 1014.7
20180821084101 30 110 11.3 11.3 0.00 0.00 0.00 27 1014.6
20180821083602 30 110 11.3 11.3 0.00 0.00 0.00 27 1014.5
20180821083101 30 110 11.3 11.3 0.00 0.00 0.00 27 1014.5
20180821081601 29 110 1.6 3.2 0.00 0.00 0.00 28 1014.4
20180821081101 29 110 1.6 3.2 0.00 0.00 0.00 28 1014.4
20180821080601 28 110 1.6 3.2 0.00 0.00 0.00 28 1014.3
20180821080102 28 110 1.6 3.2 0.00 0.00 0.00 28 1014.3
20180821075102 28 110 1.6 3.2 0.00 0.00 0.00 28 1014.4
20180821074602 28 110 0.0 0.0 0.00 0.00 0.00 29 1014.4
20180821074101 28 110 0.0 0.0 0.00 0.00 0.00 29 1014.4
20180821073101 27 110 9.7 9.7 0.00 0.00 0.00 30 1014.4
20180821071601 26 110 9.7 9.7 0.00 0.00 0.00 32 1014.3
20180821070602 26 110 9.7 9.7 0.00 0.00 0.00 32 1014.3
20180821065102 26 110 9.7 9.7 0.00 0.00 0.00 32 1014.2
20180821062602 26 110 9.7 9.7 0.00 0.00 0.00 32 1014.0
20180821062102 26 110 9.7 9.7 0.00 0.00 0.00 32 1014.0
20180821061102 26 110 9.7 9.7 0.00 0.00 0.00 32 1014.0
20180821060102 26 110 9.7 9.7 0.00 0.00 0.00 32 1014.0
20180821055602 26 110 9.7 9.7 0.00 0.00 0.00 32 1013.9
20180821055102 26 110 9.7 9.7 0.00 0.00 0.00 32 1013.9
20180821054602 26 110 9.7 9.7 0.00 0.00 0.00 32 1013.9
20180821053602 25 110 9.7 9.7 0.00 0.00 0.00 32 1013.8
20180821052102 25 110 9.7 9.7 0.00 0.00 0.00 34 1013.7
20180821051602 25 70 1.6 3.2 0.00 0.00 0.00 34 1013.7
20180821050602 24 70 1.6 3.2 0.00 0.00 0.00 35 1013.7
20180821045601 24 70 1.6 3.2 0.00 0.00 0.00 35 1013.7
20180821044601 23 70 4.8 4.8 0.00 0.00 0.00 36 1013.8
20180821044102 23 70 4.8 4.8 0.00 0.00 0.00 38 1013.8
20180821043602 23 70 4.8 4.8 0.00 0.00 0.00 42 1013.8
20180821043102 23 70 4.8 4.8 0.00 0.00 0.00 42 1013.8
20180821041102 24 80 1.6 3.2 0.00 0.00 0.00 45 1013.8
20180821040602 24 80 1.6 3.2 0.00 0.00 0.00 45 1013.8
20180821040102 24 80 1.6 3.2 0.00 0.00 0.00 45 1013.8
20180821035102 24 80 1.6 4.8 0.00 0.00 0.00 43 1013.8
20180821034102 24 80 4.8 4.8 0.00 0.00 0.00 40 1013.9
20180821032602 25 80 4.8 4.8 0.00 0.00 0.00 45 1013.8
20180821032102 25 80 4.8 4.8 0.00 0.00 0.00 45 1013.8
20180821031101 25 30 4.8 4.8 0.00 0.00 0.00 45 1013.8
20180821030602 25 30 4.8 4.8 0.00 0.00 0.00 45 1013.8
20180821030102 25 30 4.8 4.8 0.00 0.00 0.00 44 1013.8
20180821025102 25 30 4.8 4.8 0.00 0.00 0.00 44 1013.8
20180821024602 25 130 1.6 3.2 0.00 0.00 0.00 44 1013.8
20180821023101 25 130 1.6 3.2 0.00 0.00 0.00 45 1013.9
20180821022602 25 130 1.6 3.2 0.00 0.00 0.00 44 1013.9
20180821021102 25 130 0.0 0.0 0.00 0.00 0.00 44 1013.9
20180821020602 25 130 0.0 0.0 0.00 0.00 0.00 44 1013.9
20180821014602 25 130 0.0 0.0 0.00 0.00 0.00 41 1014.1
20180821014102 25 130 0.0 0.0 0.00 0.00 0.00 43 1014.1
20180821013602 25 130 0.0 0.0 0.00 0.00 0.00 43 1014.1
20180821013102 25 130 0.0 0.0 0.00 0.00 0.00 44 1014.1
20180821012602 25 130 0.0 0.0 0.00 0.00 0.00 44 1014.2
20180821012102 25 130 0.0 9.7 0.00 0.00 0.00 44 1014.2
20180821010102 26 130 9.7 9.7 0.00 0.00 0.00 42 1014.2
20180821005102 26 130 9.7 9.7 0.00 0.00 0.00 42 1014.3
20180821003102 26 20 0.0 0.0 0.00 0.00 0.00 40 1014.4
20180821002602 27 20 0.0 0.0 0.00 0.00 0.00 38 1014.4
20180821002103 27 20 0.0 4.8 0.00 0.00 0.00 38 1014.4
20180821000103 27 20 4.8 4.8 0.00 0.00 0.00 38 1014.4
20180820235602 27 20 4.8 4.8 0.00 0.00 0.00 38 1014.4
20180820235102 27 20 4.8 4.8 0.00 0.00 0.00 37 1014.4
20180820234602 27 170 0.0 0.0 0.00 0.00 0.00 37 1014.4
20180820234102 27 170 0.0 0.0 0.00 0.00 0.00 37 1014.3
20180820233602 27 170 0.0 0.0 0.00 0.00 0.00 37 1014.3
20180820233102 27 170 0.0 0.0 0.00 0.00 0.00 36 1014.3
20180820232103 27 170 0.0 4.8 0.00 0.00 0.00 35 1014.3
20180820231102 27 170 4.8 4.8 0.00 0.00 0.00 35 1014.3
20180820230602 27 170 4.8 4.8 0.00 0.00 0.00 35 1014.3
20180820230102 27 170 4.8 4.8 0.00 0.00 0.00 34 1014.3
20180820225103 27 170 4.8 4.8 0.00 0.00 0.00 35 1014.4
20180820224602 27 210 1.6 1.6 0.00 0.00 0.00 35 1014.4
20180820224102 28 210 1.6 1.6 0.00 0.00 0.00 34 1014.4
20180820222102 28 210 1.6 3.2 0.00 0.00 0.00 34 1014.4
20180820221602 28 220 3.2 3.2 0.00 0.00 0.00 34 1014.4
20180820215603 28 220 3.2 3.2 0.00 0.00 0.00 34 1014.5
20180820215102 28 220 3.2 3.2 0.00 0.00 0.00 34 1014.5
20180820214102 28 350 0.0 0.0 0.00 0.00 0.00 34 1014.6
20180820213602 28 350 0.0 0.0 0.00 0.00 0.00 34 1014.6
20180820212603 29 350 0.0 0.0 0.00 0.00 0.00 32 1014.6
20180820212102 29 350 0.0 4.8 0.00 0.00 0.00 32 1014.6
20180820211602 29 350 4.8 4.8 0.00 0.00 0.00 32 1014.6
20180820205602 29 350 4.8 4.8 0.00 0.00 0.00 32 1014.6
20180820205103 30 350 4.8 9.7 0.00 0.00 0.00 32 1014.6
20180820204602 30 340 9.7 9.7 0.00 0.00 0.00 32 1014.6
20180820203602 30 340 9.7 9.7 0.00 0.00 0.00 31 1014.5
20180820203102 30 340 9.7 9.7 0.00 0.00 0.00 30 1014.5
20180820202603 30 340 9.7 9.7 0.00 0.00 0.00 28 1014.3
20180820201102 30 340 8.0 8.0 0.00 0.00 0.00 28 1014.3
20180820200603 30 340 8.0 8.0 0.00 0.00 0.00 28 1014.3
20180820195602 31 340 8.0 8.0 0.00 0.00 0.00 28 1014.2
20180820195102 31 340 8.0 8.0 0.00 0.00 0.00 28 1014.2
20180820194102 31 340 8.0 8.0 0.00 0.00 0.00 27 1014.1
20180820193102 31 340 8.0 8.0 0.00 0.00 0.00 27 1014.1
20180820192602 32 340 8.0 8.0 0.00 0.00 0.00 26 1014.1
20180820192102 32 340 8.0 11.3 0.00 0.00 0.00 26 1014.1
20180820191603 32 340 11.3 11.3 0.00 0.00 0.00 26 1014.1
20180820191103 32 340 11.3 11.3 0.00 0.00 0.00 26 1014.1
20180820190602 32 340 11.3 11.3 0.00 0.00 0.00 26 1014.1
20180820190103 32 340 11.3 11.3 0.00 0.00 0.00 25 1014.1
20180820185103 32 340 11.3 11.3 0.00 0.00 0.00 25 1014.1
20180820183603 32 320 9.7 9.7 0.00 0.00 0.00 24 1014.1
20180820182102 33 320 9.7 11.3 0.00 0.00 0.00 26 1014.1
20180820181102 33 310 11.3 11.3 0.00 0.00 0.00 26 1014.1